World > North America > United States > Pennsylvania

Shamokin, Pennsylvania Regional Weather

Lat: 40.79N, Lon: 76.55W
Wx Zone: PAZ052Web Search

Helpful Tip: Abbreviated, 7 Day, 14 Day Forecasts. There is a weather forecast for every taste.

Feedback

Shamokin, PA Regional Weather

Expires:202008090900;;163679
ASUS41 KCTP 090810
RWRCTP

REGIONAL WEATHER ROUNDUP
NATIONAL WEATHER SERVICE STATE COLLEGE PA
400 AM EDT SUN AUG 09 2020

Note: "fair" indicates few or no clouds below 12,000 feet with no 
significant weather and/or obstructions to visibility.

* = STATION THAT DOES NOT REPORT PRECIPITATION /E.G. RAIN...SNOW...ETC/
    THUNDER OR FOG.


PAZ004>006-010>012-017>019-024>028-033>037-041-042-045-046-049>053-090900-
CENTRAL PENNSYLVANIA
  
CITY           SKY/WX    TMP DP  RH WIND       PRES   REMARKS
BRADFORD       CLEAR     52  48  86 SE3       30.20S                  
ST MARYS       MOSUNNY   54  54 100 CALM      30.23                   
DUBOIS         CLEAR     59  54  83 CALM      30.19S                  
CLEARFIELD     PTCLDY    60  57  89 CALM      30.20R                  
JOHNSTOWN      MOCLDY    66  58  75 NW3       30.22R                  
SOMERSET       PTSUNNY   59  57  94 SW3       30.22R                  
ALTOONA        MOCLDY    65  63  93 CALM      30.19R FOG              
STATE COLLEGE  MOCLDY    66  66  99 CALM      30.17S                  
REEDSVILLE     NOT AVBL                                               
WELLSBORO      PTSUNNY   59  59 100 CALM      30.19R                  
WILLIAMSPORT   PTCLDY    68  65  90 CALM      30.13R                  
SELINSGROVE    PTCLDY    64  63  96 CALM      30.14R FOG              
FT INDIANTOWN  CLEAR     65  65  97 MISG      30.13S                  
CAPITAL CITY   CLEAR     70  65  84 W5        30.13S                  
HARRISBURG     CLEAR     72  68  87 CALM      30.13R                  
YORK           CLEAR     65  62  90 CALM      30.14R FOG              
$$


SKY/WX - Weather  TMP - Temperature  DP - Dew Point  RH - Relative Humidity
WIND - Wind Direction/Speed PRES - Barometric Pressure VSB - Visibility
WCI - Wind Chill Index E13G22 Wind - East Wind 13 mph/Gusts of 22 mph
Shamokin Weather Map
UTC Time: 8/9/2020, 08:11
Your Time: